"Sample Date","Sample Time","Sensor Name","Sample Value","Units","Flow Rate","Sample Interval","Sample Volume","Laser Status","Number Channels","Micron Size 0","Counts/Channel 0","Micron Size 1","Counts/Channel 1","Micron Size 2","Counts/Channel 2","Micron Size 3","Counts/Channel 3","Micron Size 4","Counts/Channel 4","Micron Size 5","Counts/Channel 5","Micron Size 6","Counts/Channel 6","Micron Size 7","Counts/Channel 7","Micron Size 8","Counts/Channel 8","Micron Size 9","Counts/Channel 9","Micron Size 10","Counts/Channel 10","Micron Size 11","Counts/Channel 11","Micron Size 12","Counts/Channel 12","Micron Size 13","Counts/Channel 13","Micron Size 14","Counts/Channel 14","Micron Size 15","Counts/Channel 15","Micron Size 16","Counts/Channel 16","Micron Size 17","Counts/Channel 17","Micron Size 18","Counts/Channel 18","Micron Size 19","Counts/Channel 19","Micron Size 20","Counts/Channel 20","Micron Size 21","Counts/Channel 21","Micron Size 22","Counts/Channel 22","Micron Size 23","Counts/Channel 23","Micron Size 24","Counts/Channel 24","Micron Size 25","Counts/Channel 25","Micron Size 26","Counts/Channel 26","Micron Size 27","Counts/Channel 27","Micron Size 28","Counts/Channel 28","Micron Size 29","Counts/Channel 29","Micron Size 30","Counts/Channel 30","Micron Size 31","Counts/Channel 31"
"07/03/06","05:00:03","AMMA06",83761.000,"cc",28275.018,6.00,2827.502,1,6,0.100,42617.000,0.200,32389.000,0.300,6131.000,0.500,1583.000,1.000,1040.000,5.000,1.000
"07/03/06","05:00:09","AMMA06",83111.000,"cc",28281.094,6.00,2828.110,1,6,0.100,41969.000,0.200,32202.000,0.300,6397.000,0.500,1536.000,1.000,1006.000,5.000,1.000
"07/03/06","05:00:15","AMMA06",83201.000,"cc",28406.016,6.00,2840.602,1,6,0.100,42089.000,0.200,32060.000,0.300,6460.000,0.500,1588.000,1.000,1004.000,5.000,0
"07/03/06","05:00:21","AMMA06",83108.000,"cc",28331.246,6.00,2833.125,1,6,0.100,42292.000,0.200,31984.000,0.300,6235.000,0.500,1612.000,1.000,985.000,5.000,0
"07/03/06","05:00:27","AMMA06",82953.000,"cc",28313.135,6.00,2831.314,1,6,0.100,41860.000,0.200,32174.000,0.300,6272.000,0.500,1659.000,1.000,988.000,5.000,0
"07/03/06","05:00:33","AMMA06",82405.000,"cc",28298.262,6.00,2829.826,1,6,0.100,41521.000,0.200,31823.000,0.300,6401.000,0.500,1589.000,1.000,1071.000,5.000,0
"07/03/06","05:00:39","AMMA06",83356.000,"cc",28254.674,6.00,2825.468,1,6,0.100,41893.000,0.200,32342.000,0.300,6450.000,0.500,1589.000,1.000,1082.000,5.000,0
"07/03/06","05:00:45","AMMA06",83387.000,"cc",28347.055,6.00,2834.706,1,6,0.100,42097.000,0.200,32288.000,0.300,6429.000,0.500,1548.000,1.000,1025.000,5.000,0
"07/03/06","05:00:51","AMMA06",83535.000,"cc",28297.340,6.00,2829.734,1,6,0.100,42308.000,0.200,32321.000,0.300,6394.000,0.500,1545.000,1.000,966.000,5.000,1.000
"07/03/06","05:00:57","AMMA06",83570.000,"cc",28281.162,6.00,2828.117,1,6,0.100,42225.000,0.200,32261.000,0.300,6436.000,0.500,1684.000,1.000,964.000,5.000,0
"07/03/06","05:01:03","AMMA06",83681.000,"cc",28361.137,6.00,2836.114,1,6,0.100,42216.000,0.200,32254.000,0.300,6653.000,0.500,1571.000,1.000,987.000,5.000,0
"07/03/06","05:01:09","AMMA06",83363.000,"cc",28309.275,6.00,2830.928,1,6,0.100,41848.000,0.200,32418.000,0.300,6467.000,0.500,1583.000,1.000,1046.000,5.000,1.000
"07/03/06","05:01:15","AMMA06",83794.000,"cc",28339.147,6.00,2833.915,1,6,0.100,42036.000,0.200,32519.000,0.300,6626.000,0.500,1600.000,1.000,1013.000,5.000,0
"07/03/06","05:01:21","AMMA06",83602.000,"cc",28323.785,6.00,2832.379,1,6,0.100,41962.000,0.200,32360.000,0.300,6620.000,0.500,1612.000,1.000,1048.000,5.000,0
"07/03/06","05:01:27","AMMA06",83504.000,"cc",28294.473,6.00,2829.448,1,6,0.100,41761.000,0.200,32536.000,0.300,6581.000,0.500,1611.000,1.000,1013.000,5.000,2.000
"07/03/06","05:01:33","AMMA06",83400.000,"cc",28346.217,6.00,2834.622,1,6,0.100,41796.000,0.200,32245.000,0.300,6706.000,0.500,1584.000,1.000,1069.000,5.000,0
"07/03/06","05:01:39","AMMA06",84220.000,"cc",28323.731,6.00,2832.373,1,6,0.100,41895.000,0.200,32827.000,0.300,6834.000,0.500,1579.000,1.000,1085.000,5.000,0
"07/03/06","05:01:45","AMMA06",83535.000,"cc",28304.160,6.00,2830.416,1,6,0.100,41683.000,0.200,32550.000,0.300,6647.000,0.500,1582.000,1.000,1073.000,5.000,0
"07/03/06","05:01:51","AMMA06",83735.000,"cc",28314.195,6.00,2831.420,1,6,0.100,41784.000,0.200,32736.000,0.300,6667.000,0.500,1524.000,1.000,1024.000,5.000,0
"07/03/06","05:01:57","AMMA06",83764.000,"cc",28376.473,6.00,2837.648,1,6,0.100,41882.000,0.200,32526.000,0.300,6719.000,0.500,1528.000,1.000,1109.000,5.000,0
"07/03/06","05:02:03","AMMA06",83721.000,"cc",28255.606,6.00,2825.561,1,6,0.100,41730.000,0.200,32708.000,0.300,6701.000,0.500,1534.000,1.000,1048.000,5.000,0
"07/03/06","05:02:09","AMMA06",83922.000,"cc",28302.074,6.00,2830.208,1,6,0.100,42000.000,0.200,32633.000,0.300,6669.000,0.500,1543.000,1.000,1077.000,5.000,0
"07/03/06","05:02:15","AMMA06",83694.000,"cc",28294.652,6.00,2829.465,1,6,0.100,41745.000,0.200,32591.000,0.300,6678.000,0.500,1621.000,1.000,1059.000,5.000,0
"07/03/06","05:02:21","AMMA06",83674.000,"cc",28354.344,6.00,2835.435,1,6,0.100,41954.000,0.200,32408.000,0.300,6689.000,0.500,1560.000,1.000,1063.000,5.000,0
"07/03/06","05:02:27","AMMA06",84335.000,"cc",28339.863,6.00,2833.987,1,6,0.100,42106.000,0.200,33076.000,0.300,6555.000,0.500,1553.000,1.000,1045.000,5.000,0
"07/03/06","05:02:33","AMMA06",83722.000,"cc",28301.270,6.00,2830.127,1,6,0.100,41857.000,0.200,32736.000,0.300,6571.000,0.500,1536.000,1.000,1022.000,5.000,0
"07/03/06","05:02:39","AMMA06",83770.000,"cc",28320.029,6.00,2832.003,1,6,0.100,41772.000,0.200,32614.000,0.300,6777.000,0.500,1557.000,1.000,1050.000,5.000,0
"07/03/06","05:02:45","AMMA06",83910.000,"cc",28327.436,6.00,2832.744,1,6,0.100,41797.000,0.200,32769.000,0.300,6740.000,0.500,1574.000,1.000,1030.000,5.000,0
"07/03/06","05:02:51","AMMA06",83632.000,"cc",28333.387,6.00,2833.339,1,6,0.100,41785.000,0.200,32465.000,0.300,6763.000,0.500,1626.000,1.000,993.000,5.000,0
"07/03/06","05:02:57","AMMA06",83426.000,"cc",28347.363,6.00,2834.737,1,6,0.100,41899.000,0.200,32538.000,0.300,6481.000,0.500,1509.000,1.000,999.000,5.000,0
"07/03/06","05:03:03","AMMA06",83370.000,"cc",28282.598,6.00,2828.260,1,6,0.100,41944.000,0.200,32353.000,0.300,6508.000,0.500,1522.000,1.000,1043.000,5.000,0
"07/03/06","05:03:09","AMMA06",83494.000,"cc",28300.150,6.00,2830.015,1,6,0.100,42035.000,0.200,32318.000,0.300,6542.000,0.500,1607.000,1.000,992.000,5.000,0
"07/03/06","05:03:15","AMMA06",83867.000,"cc",28319.197,6.00,2831.920,1,6,0.100,42206.000,0.200,32574.000,0.300,6432.000,0.500,1604.000,1.000,1051.000,5.000,0
"07/03/06","05:03:21","AMMA06",83371.000,"cc",28302.301,6.00,2830.230,1,6,0.100,42066.000,0.200,32318.000,0.300,6444.000,0.500,1544.000,1.000,998.000,5.000,1.000
"07/03/06","05:03:27","AMMA06",83741.000,"cc",28300.934,6.00,2830.094,1,6,0.100,41948.000,0.200,32593.000,0.300,6471.000,0.500,1642.000,1.000,1087.000,5.000,0
"07/03/06","05:03:33","AMMA06",83370.000,"cc",28323.236,6.00,2832.324,1,6,0.100,42103.000,0.200,32141.000,0.300,6454.000,0.500,1608.000,1.000,1064.000,5.000,0
"07/03/06","05:03:39","AMMA06",83449.000,"cc",28304.141,6.00,2830.414,1,6,0.100,41824.000,0.200,32605.000,0.300,6374.000,0.500,1585.000,1.000,1061.000,5.000,0
"07/03/06","05:03:45","AMMA06",83598.000,"cc",28337.549,6.00,2833.755,1,6,0.100,42251.000,0.200,32247.000,0.300,6454.000,0.500,1615.000,1.000,1031.000,5.000,0
"07/03/06","05:03:51","AMMA06",83379.000,"cc",28337.242,6.00,2833.724,1,6,0.100,42316.000,0.200,32209.000,0.300,6351.000,0.500,1520.000,1.000,983.000,5.000,0
"07/03/06","05:03:57","AMMA06",82997.000,"cc",28301.666,6.00,2830.167,1,6,0.100,41955.000,0.200,32109.000,0.300,6328.000,0.500,1600.000,1.000,1005.000,5.000,0
"07/03/06","05:04:03","AMMA06",83532.000,"cc",28325.293,6.00,2832.530,1,6,0.100,42214.000,0.200,32215.000,0.300,6520.000,0.500,1594.000,1.000,988.000,5.000,1.000
"07/03/06","05:04:09","AMMA06",83437.000,"cc",28266.434,6.00,2826.644,1,6,0.100,42141.000,0.200,32315.000,0.300,6395.000,0.500,1598.000,1.000,987.000,5.000,1.000
"07/03/06","05:04:15","AMMA06",83239.000,"cc",28279.520,6.00,2827.952,1,6,0.100,42305.000,0.200,31902.000,0.300,6300.000,0.500,1649.000,1.000,1082.000,5.000,1.000
"07/03/06","05:04:21","AMMA06",83487.000,"cc",28344.039,6.00,2834.404,1,6,0.100,42178.000,0.200,32370.000,0.300,6337.000,0.500,1595.000,1.000,1007.000,5.000,0
"07/03/06","05:04:27","AMMA06",83126.000,"cc",28329.867,6.00,2832.987,1,6,0.100,42048.000,0.200,32102.000,0.300,6367.000,0.500,1650.000,1.000,959.000,5.000,0
"07/03/06","05:04:33","AMMA06",83680.000,"cc",28326.436,6.00,2832.644,1,6,0.100,42350.000,0.200,32334.000,0.300,6349.000,0.500,1661.000,1.000,985.000,5.000,1.000
"07/03/06","05:04:39","AMMA06",83247.000,"cc",28321.639,6.00,2832.164,1,6,0.100,42194.000,0.200,32141.000,0.300,6345.000,0.500,1569.000,1.000,997.000,5.000,1.000
"07/03/06","05:04:45","AMMA06",83041.000,"cc",28342.807,6.00,2834.281,1,6,0.100,41813.000,0.200,32366.000,0.300,6317.000,0.500,1575.000,1.000,970.000,5.000,0
"07/03/06","05:04:51","AMMA06",83707.000,"cc",28298.531,6.00,2829.853,1,6,0.100,42634.000,0.200,32196.000,0.300,6247.000,0.500,1599.000,1.000,1031.000,5.000,0
"07/03/06","05:04:57","AMMA06",83434.000,"cc",28329.844,6.00,2832.985,1,6,0.100,42354.000,0.200,32265.000,0.300,6269.000,0.500,1516.000,1.000,1030.000,5.000,0
"07/03/06","05:05:03","AMMA06",82811.000,"cc",28297.184,6.00,2829.719,1,6,0.100,41635.000,0.200,32165.000,0.300,6399.000,0.500,1575.000,1.000,1037.000,5.000,0
"07/03/06","05:05:09","AMMA06",83460.000,"cc",28340.592,6.00,2834.059,1,6,0.100,42262.000,0.200,32220.000,0.300,6328.000,0.500,1647.000,1.000,1003.000,5.000,0
"07/03/06","05:05:15","AMMA06",83349.000,"cc",28360.506,6.00,2836.051,1,6,0.100,42313.000,0.200,32173.000,0.300,6270.000,0.500,1592.000,1.000,1001.000,5.000,0
"07/03/06","05:05:21","AMMA06",83086.000,"cc",28276.754,6.00,2827.676,1,6,0.100,42167.000,0.200,32002.000,0.300,6264.000,0.500,1629.000,1.000,1024.000,5.000,0
"07/03/06","05:05:27","AMMA06",83356.000,"cc",28325.465,6.00,2832.547,1,6,0.100,42188.000,0.200,32270.000,0.300,6335.000,0.500,1589.000,1.000,974.000,5.000,0
"07/03/06","05:05:33","AMMA06",83527.000,"cc",28316.270,6.00,2831.627,1,6,0.100,42139.000,0.200,32386.000,0.300,6383.000,0.500,1551.000,1.000,1068.000,5.000,0
"07/03/06","05:05:39","AMMA06",83289.000,"cc",28302.693,6.00,2830.270,1,6,0.100,42092.000,0.200,32298.000,0.300,6253.000,0.500,1629.000,1.000,1016.000,5.000,1.000
"07/03/06","05:05:45","AMMA06",83215.000,"cc",28312.637,6.00,2831.264,1,6,0.100,42210.000,0.200,32216.000,0.300,6237.000,0.500,1526.000,1.000,1026.000,5.000,0
"07/03/06","05:05:51","AMMA06",83412.000,"cc",28291.373,6.00,2829.138,1,6,0.100,42354.000,0.200,32162.000,0.300,6216.000,0.500,1660.000,1.000,1019.000,5.000,1.000
"07/03/06","05:05:57","AMMA06",83048.000,"cc",28346.490,6.00,2834.649,1,6,0.100,42107.000,0.200,32024.000,0.300,6321.000,0.500,1621.000,1.000,975.000,5.000,0
"07/03/06","05:06:03","AMMA06",83049.000,"cc",28306.365,6.00,2830.637,1,6,0.100,42165.000,0.200,31949.000,0.300,6269.000,0.500,1596.000,1.000,1070.000,5.000,0
"07/03/06","05:06:09","AMMA06",83420.000,"cc",28300.625,6.00,2830.063,1,6,0.100,42245.000,0.200,32283.000,0.300,6338.000,0.500,1593.000,1.000,960.000,5.000,1.000
"07/03/06","05:06:15","AMMA06",83451.000,"cc",28323.160,6.00,2832.316,1,6,0.100,42366.000,0.200,32318.000,0.300,6239.000,0.500,1524.000,1.000,1004.000,5.000,0
"07/03/06","05:06:21","AMMA06",83491.000,"cc",28331.094,6.00,2833.110,1,6,0.100,42441.000,0.200,32150.000,0.300,6346.000,0.500,1552.000,1.000,1001.000,5.000,1.000
"07/03/06","05:06:27","AMMA06",83657.000,"cc",28277.195,6.00,2827.720,1,6,0.100,42267.000,0.200,32426.000,0.300,6280.000,0.500,1572.000,1.000,1112.000,5.000,0
"07/03/06","05:06:33","AMMA06",83271.000,"cc",28381.287,6.00,2838.129,1,6,0.100,42158.000,0.200,32195.000,0.300,6403.000,0.500,1525.000,1.000,990.000,5.000,0
"07/03/06","05:06:39","AMMA06",83635.000,"cc",28317.191,6.00,2831.719,1,6,0.100,42131.000,0.200,32408.000,0.300,6455.000,0.500,1632.000,1.000,1009.000,5.000,0
"07/03/06","05:06:45","AMMA06",83515.000,"cc",28311.928,6.00,2831.193,1,6,0.100,42203.000,0.200,32180.000,0.300,6521.000,0.500,1621.000,1.000,990.000,5.000,0
"07/03/06","05:06:51","AMMA06",83339.000,"cc",28338.463,6.00,2833.846,1,6,0.100,41865.000,0.200,32345.000,0.300,6502.000,0.500,1586.000,1.000,1041.000,5.000,0
"07/03/06","05:06:57","AMMA06",83472.000,"cc",28258.357,6.00,2825.836,1,6,0.100,42116.000,0.200,32246.000,0.300,6524.000,0.500,1577.000,1.000,1008.000,5.000,1.000
"07/03/06","05:07:03","AMMA06",83726.000,"cc",28298.262,6.00,2829.826,1,6,0.100,41963.000,0.200,32556.000,0.300,6514.000,0.500,1640.000,1.000,1053.000,5.000,0
"07/03/06","05:07:09","AMMA06",83435.000,"cc",28315.377,6.00,2831.538,1,6,0.100,42027.000,0.200,32300.000,0.300,6572.000,0.500,1516.000,1.000,1020.000,5.000,0
"07/03/06","05:07:15","AMMA06",83809.000,"cc",28319.518,6.00,2831.952,1,6,0.100,41988.000,0.200,32553.000,0.300,6610.000,0.500,1618.000,1.000,1040.000,5.000,0
"07/03/06","05:07:21","AMMA06",83609.000,"cc",28387.625,6.00,2838.763,1,6,0.100,42021.000,0.200,32401.000,0.300,6528.000,0.500,1617.000,1.000,1042.000,5.000,0
"07/03/06","05:07:27","AMMA06",83721.000,"cc",28311.150,6.00,2831.115,1,6,0.100,41849.000,0.200,32529.000,0.300,6654.000,0.500,1625.000,1.000,1064.000,5.000,0
"07/03/06","05:07:33","AMMA06",83493.000,"cc",28273.695,6.00,2827.370,1,6,0.100,41799.000,0.200,32599.000,0.300,6543.000,0.500,1544.000,1.000,1008.000,5.000,0
"07/03/06","05:07:39","AMMA06",83495.000,"cc",28322.496,6.00,2832.250,1,6,0.100,41828.000,0.200,32477.000,0.300,6510.000,0.500,1606.000,1.000,1073.000,5.000,1.000
"07/03/06","05:07:45","AMMA06",83410.000,"cc",28319.391,6.00,2831.939,1,6,0.100,41790.000,0.200,32237.000,0.300,6740.000,0.500,1635.000,1.000,1008.000,5.000,0
"07/03/06","05:07:51","AMMA06",83899.000,"cc",28321.703,6.00,2832.170,1,6,0.100,42118.000,0.200,32565.000,0.300,6634.000,0.500,1565.000,1.000,1017.000,5.000,0
"07/03/06","05:07:57","AMMA06",83991.000,"cc",28320.981,6.00,2832.098,1,6,0.100,42133.000,0.200,32576.000,0.300,6599.000,0.500,1579.000,1.000,1104.000,5.000,0
"07/03/06","05:08:03","AMMA06",83306.000,"cc",28311.273,6.00,2831.127,1,6,0.100,41501.000,0.200,32496.000,0.300,6679.000,0.500,1581.000,1.000,1049.000,5.000,0
"07/03/06","05:08:09","AMMA06",83310.000,"cc",28307.840,6.00,2830.784,1,6,0.100,41576.000,0.200,32375.000,0.300,6682.000,0.500,1623.000,1.000,1054.000,5.000,0
"07/03/06","05:08:15","AMMA06",83734.000,"cc",28356.533,6.00,2835.654,1,6,0.100,42342.000,0.200,32175.000,0.300,6618.000,0.500,1569.000,1.000,1030.000,5.000,0
"07/03/06","05:08:21","AMMA06",83458.000,"cc",28284.184,6.00,2828.419,1,6,0.100,41895.000,0.200,32423.000,0.300,6438.000,0.500,1604.000,1.000,1097.000,5.000,1.000
"07/03/06","05:08:27","AMMA06",84085.000,"cc",28308.025,6.00,2830.803,1,6,0.100,42330.000,0.200,32465.000,0.300,6592.000,0.500,1581.000,1.000,1117.000,5.000,0
"07/03/06","05:08:33","AMMA06",83498.000,"cc",28343.395,6.00,2834.340,1,6,0.100,41718.000,0.200,32416.000,0.300,6629.000,0.500,1591.000,1.000,1144.000,5.000,0
"07/03/06","05:08:39","AMMA06",83425.000,"cc",28313.600,6.00,2831.360,1,6,0.100,42020.000,0.200,32275.000,0.300,6573.000,0.500,1526.000,1.000,1031.000,5.000,0
"07/03/06","05:08:45","AMMA06",83780.000,"cc",28338.262,6.00,2833.826,1,6,0.100,41976.000,0.200,32662.000,0.300,6491.000,0.500,1581.000,1.000,1069.000,5.000,1.000
"07/03/06","05:08:51","AMMA06",83499.000,"cc",28289.988,6.00,2828.999,1,6,0.100,41675.000,0.200,32621.000,0.300,6542.000,0.500,1593.000,1.000,1068.000,5.000,0
"07/03/06","05:08:57","AMMA06",83852.000,"cc",28305.824,6.00,2830.583,1,6,0.100,42026.000,0.200,32738.000,0.300,6447.000,0.500,1607.000,1.000,1033.000,5.000,1.000
"07/03/06","05:09:03","AMMA06",83666.000,"cc",28318.315,6.00,2831.832,1,6,0.100,41908.000,0.200,32516.000,0.300,6540.000,0.500,1619.000,1.000,1083.000,5.000,0
"07/03/06","05:09:09","AMMA06",83673.000,"cc",28329.732,6.00,2832.973,1,6,0.100,42163.000,0.200,32474.000,0.300,6471.000,0.500,1498.000,1.000,1067.000,5.000,0
"07/03/06","05:09:15","AMMA06",84337.000,"cc",28316.617,6.00,2831.662,1,6,0.100,42189.000,0.200,32973.000,0.300,6535.000,0.500,1590.000,1.000,1050.000,5.000,0
"07/03/06","05:09:21","AMMA06",83842.000,"cc",28322.840,6.00,2832.284,1,6,0.100,41977.000,0.200,32660.000,0.300,6608.000,0.500,1515.000,1.000,1081.000,5.000,1.000
"07/03/06","05:09:27","AMMA06",83933.000,"cc",28309.561,6.00,2830.956,1,6,0.100,42122.000,0.200,32542.000,0.300,6608.000,0.500,1591.000,1.000,1069.000,5.000,1.000
"07/03/06","05:09:33","AMMA06",84545.000,"cc",28317.445,6.00,2831.745,1,6,0.100,42642.000,0.200,32762.000,0.300,6578.000,0.500,1581.000,1.000,982.000,5.000,0
"07/03/06","05:09:39","AMMA06",83737.000,"cc",28349.088,6.00,2834.909,1,6,0.100,42081.000,0.200,32432.000,0.300,6617.000,0.500,1581.000,1.000,1026.000,5.000,0
"07/03/06","05:09:45","AMMA06",84362.000,"cc",28300.074,6.00,2830.008,1,6,0.100,42484.000,0.200,32526.000,0.300,6665.000,0.500,1622.000,1.000,1065.000,5.000,0
"07/03/06","05:09:51","AMMA06",83988.000,"cc",28302.602,6.00,2830.260,1,6,0.100,42482.000,0.200,32407.000,0.300,6487.000,0.500,1583.000,1.000,1027.000,5.000,2.000
"07/03/06","05:09:57","AMMA06",83673.000,"cc",28306.531,6.00,2830.653,1,6,0.100,42157.000,0.200,32574.000,0.300,6300.000,0.500,1613.000,1.000,1029.000,5.000,0
"07/03/06","05:10:03","AMMA06",83235.000,"cc",28299.344,6.00,2829.935,1,6,0.100,41971.000,0.200,32217.000,0.300,6331.000,0.500,1653.000,1.000,1062.000,5.000,1.000
"07/03/06","05:10:09","AMMA06",84038.000,"cc",28289.959,6.00,2828.996,1,6,0.100,42313.000,0.200,32587.000,0.300,6456.000,0.500,1639.000,1.000,1042.000,5.000,1.000
"07/03/06","05:10:15","AMMA06",83866.000,"cc",28286.729,6.00,2828.673,1,6,0.100,42276.000,0.200,32526.000,0.300,6451.000,0.500,1573.000,1.000,1040.000,5.000,0
"07/03/06","05:10:21","AMMA06",83441.000,"cc",28355.770,6.00,2835.577,1,6,0.100,42410.000,0.200,32068.000,0.300,6366.000,0.500,1596.000,1.000,1001.000,5.000,0
"07/03/06","05:10:27","AMMA06",83698.000,"cc",28342.490,6.00,2834.249,1,6,0.100,42215.000,0.200,32479.000,0.300,6368.000,0.500,1600.000,1.000,1036.000,5.000,0
"07/03/06","05:10:33","AMMA06",83814.000,"cc",28341.816,6.00,2834.182,1,6,0.100,42604.000,0.200,32276.000,0.300,6382.000,0.500,1544.000,1.000,1008.000,5.000,0
"07/03/06","05:10:39","AMMA06",83634.000,"cc",28326.727,6.00,2832.673,1,6,0.100,42651.000,0.200,32045.000,0.300,6366.000,0.500,1587.000,1.000,985.000,5.000,0
"07/03/06","05:10:45","AMMA06",83270.000,"cc",28307.631,6.00,2830.763,1,6,0.100,42205.000,0.200,32010.000,0.300,6386.000,0.500,1607.000,1.000,1062.000,5.000,0
"07/03/06","05:10:51","AMMA06",83440.000,"cc",28313.031,6.00,2831.303,1,6,0.100,42706.000,0.200,31858.000,0.300,6207.000,0.500,1575.000,1.000,1094.000,5.000,0
"07/03/06","05:10:57","AMMA06",83005.000,"cc",28300.977,6.00,2830.098,1,6,0.100,42079.000,0.200,32016.000,0.300,6285.000,0.500,1605.000,1.000,1020.000,5.000,0
"07/03/06","05:11:03","AMMA06",83932.000,"cc",28347.232,6.00,2834.723,1,6,0.100,42553.000,0.200,32405.000,0.300,6398.000,0.500,1577.000,1.000,999.000,5.000,0
"07/03/06","05:11:09","AMMA06",83308.000,"cc",28318.367,6.00,2831.837,1,6,0.100,42300.000,0.200,32176.000,0.300,6245.000,0.500,1577.000,1.000,1010.000,5.000,0
"07/03/06","05:11:15","AMMA06",83292.000,"cc",28266.022,6.00,2826.602,1,6,0.100,42267.000,0.200,32032.000,0.300,6365.000,0.500,1636.000,1.000,991.000,5.000,1.000
"07/03/06","05:11:21","AMMA06",83431.000,"cc",28335.570,6.00,2833.557,1,6,0.100,42313.000,0.200,32242.000,0.300,6300.000,0.500,1540.000,1.000,1036.000,5.000,0
"07/03/06","05:11:27","AMMA06",83422.000,"cc",28346.568,6.00,2834.657,1,6,0.100,42405.000,0.200,32022.000,0.300,6305.000,0.500,1645.000,1.000,1045.000,5.000,0
"07/03/06","05:11:33","AMMA06",83197.000,"cc",28293.906,6.00,2829.391,1,6,0.100,42095.000,0.200,32456.000,0.300,6071.000,0.500,1632.000,1.000,943.000,5.000,0
"07/03/06","05:11:39","AMMA06",83895.000,"cc",28304.500,6.00,2830.450,1,6,0.100,42468.000,0.200,32440.000,0.300,6260.000,0.500,1686.000,1.000,1041.000,5.000,0
"07/03/06","05:11:45","AMMA06",83199.000,"cc",28284.393,6.00,2828.440,1,6,0.100,42286.000,0.200,32152.000,0.300,6163.000,0.500,1619.000,1.000,979.000,5.000,0
"07/03/06","05:11:51","AMMA06",82773.000,"cc",28288.740,6.00,2828.874,1,6,0.100,41868.000,0.200,31987.000,0.300,6247.000,0.500,1634.000,1.000,1036.000,5.000,1.000
"07/03/06","05:11:57","AMMA06",82776.000,"cc",28351.738,6.00,2835.174,1,6,0.100,42211.000,0.200,31732.000,0.300,6281.000,0.500,1592.000,1.000,960.000,5.000,0
"07/03/06","05:12:03","AMMA06",83544.000,"cc",28350.037,6.00,2835.004,1,6,0.100,42544.000,0.200,32100.000,0.300,6231.000,0.500,1654.000,1.000,1015.000,5.000,0
"07/03/06","05:12:09","AMMA06",82993.000,"cc",28306.885,6.00,2830.689,1,6,0.100,42002.000,0.200,32083.000,0.300,6300.000,0.500,1600.000,1.000,1006.000,5.000,2.000
"07/03/06","05:12:15","AMMA06",83455.000,"cc",28338.863,6.00,2833.887,1,6,0.100,42366.000,0.200,32215.000,0.300,6241.000,0.500,1598.000,1.000,1034.000,5.000,1.000
"07/03/06","05:12:21","AMMA06",83258.000,"cc",28347.174,6.00,2834.718,1,6,0.100,42533.000,0.200,31816.000,0.300,6241.000,0.500,1605.000,1.000,1063.000,5.000,0
"07/03/06","05:12:27","AMMA06",82931.000,"cc",28304.268,6.00,2830.427,1,6,0.100,42379.000,0.200,31626.000,0.300,6236.000,0.500,1603.000,1.000,1086.000,5.000,1.000
"07/03/06","05:12:33","AMMA06",82811.000,"cc",28284.990,6.00,2828.499,1,6,0.100,41977.000,0.200,32153.000,0.300,5990.000,0.500,1645.000,1.000,1045.000,5.000,1.000
"07/03/06","05:12:39","AMMA06",82960.000,"cc",28363.004,6.00,2836.301,1,6,0.100,41955.000,0.200,32170.000,0.300,6258.000,0.500,1550.000,1.000,1027.000,5.000,0
"07/03/06","05:12:45","AMMA06",82997.000,"cc",28290.270,6.00,2829.027,1,6,0.100,42067.000,0.200,32051.000,0.300,6220.000,0.500,1573.000,1.000,1086.000,5.000,0
"07/03/06","05:12:51","AMMA06",82758.000,"cc",28332.318,6.00,2833.232,1,6,0.100,42085.000,0.200,31918.000,0.300,6211.000,0.500,1537.000,1.000,1006.000,5.000,1.000
"07/03/06","05:12:57","AMMA06",83453.000,"cc",28375.982,6.00,2837.598,1,6,0.100,42424.000,0.200,32221.000,0.300,6115.000,0.500,1669.000,1.000,1024.000,5.000,0
"07/03/06","05:13:03","AMMA06",83079.000,"cc",28299.965,6.00,2829.997,1,6,0.100,41939.000,0.200,32141.000,0.300,6376.000,0.500,1548.000,1.000,1075.000,5.000,0
"07/03/06","05:13:09","AMMA06",82963.000,"cc",28295.604,6.00,2829.561,1,6,0.100,41956.000,0.200,32157.000,0.300,6246.000,0.500,1605.000,1.000,998.000,5.000,1.000
"07/03/06","05:13:15","AMMA06",83007.000,"cc",28309.803,6.00,2830.981,1,6,0.100,42039.000,0.200,32182.000,0.300,6176.000,0.500,1579.000,1.000,1031.000,5.000,0
"07/03/06","05:13:21","AMMA06",83102.000,"cc",28298.797,6.00,2829.880,1,6,0.100,41889.000,0.200,32192.000,0.300,6357.000,0.500,1608.000,1.000,1055.000,5.000,1.000
"07/03/06","05:13:27","AMMA06",83248.000,"cc",28289.461,6.00,2828.946,1,6,0.100,42224.000,0.200,32079.000,0.300,6297.000,0.500,1592.000,1.000,1056.000,5.000,0
"07/03/06","05:13:33","AMMA06",83429.000,"cc",28320.125,6.00,2832.013,1,6,0.100,42249.000,0.200,32141.000,0.300,6387.000,0.500,1636.000,1.000,1015.000,5.000,1.000
"07/03/06","05:13:39","AMMA06",83576.000,"cc",28277.967,6.00,2827.797,1,6,0.100,42503.000,0.200,32213.000,0.300,6211.000,0.500,1597.000,1.000,1052.000,5.000,0
"07/03/06","05:13:45","AMMA06",82904.000,"cc",28329.381,6.00,2832.938,1,6,0.100,41949.000,0.200,32026.000,0.300,6307.000,0.500,1587.000,1.000,1035.000,5.000,0
"07/03/06","05:13:51","AMMA06",83836.000,"cc",28307.943,6.00,2830.794,1,6,0.100,42696.000,0.200,32320.000,0.300,6266.000,0.500,1595.000,1.000,958.000,5.000,1.000
"07/03/06","05:13:57","AMMA06",83399.000,"cc",28312.682,6.00,2831.268,1,6,0.100,42272.000,0.200,32113.000,0.300,6366.000,0.500,1640.000,1.000,1008.000,5.000,0
"07/03/06","05:14:03","AMMA06",83317.000,"cc",28358.578,6.00,2835.858,1,6,0.100,42389.000,0.200,31885.000,0.300,6444.000,0.500,1561.000,1.000,1038.000,5.000,0